Weather observations for the past three days for
Burlington, Burlington International Airport
Imperial (Metric)
Date Time (edt) Wind (mph) Vis. (mi.) Weather Sky Cond. Temperature (ºF) Relative Humidity Wind Chill (°F) Heat Index (°F) Pressure Precipitation (in)
Air Dwpt 6 hour altimeter (in) sea level (mb) 1 hr 3 hr 6 hr
Max. Min.
14 05:54 Calm 10.00 Mostly Cloudy FEW070 SCT090 BKN110 66.9 62.1 84% 29.76 1007.8
14 04:54 S 6 10.00 Overcast OVC110 66.9 62.1 84% 29.76 1007.7 0.02 0.17
14 03:54 S 14 G 21 6.00 Rain SCT060 BKN080 OVC100 66.9 62.1 84% 29.76 1007.7 0.15
14 02:54 W 3 10.00 Overcast OVC070 72 57.9 61% 29.8 1009.0
14 01:54 NW 8 G 26 10.00 Overcast FEW049 OVC065 73.9 55 78.1 73.9 52% 29.81 1009.4
14 00:54 S 16 G 30 10.00 Fair CLR 77 55.9 48% 79 29.75 1007.1
13 23:54 S 17 G 28 10.00 Fair CLR 78.1 55.9 47% 79 29.74 1006.7
13 22:54 S 10 G 21 10.00 Fair CLR 75.9 57 52% 78 29.78 1008.3
13 21:54 S 9 10.00 A Few Clouds FEW110 75.9 57.9 54% 78 29.78 1008.2
13 20:54 S 13 G 23 10.00 Partly Cloudy FEW110 SCT160 77 59 54% 79 29.78 1008.4
13 19:54 S 9 10.00 Mostly Cloudy FEW110 BKN130 BKN200 78.1 60.1 82.9 77 54% 79 29.8 1009.0
13 18:54 S 8 10.00 Mostly Cloudy FEW085 FEW120 BKN200 78.1 61 56% 80 29.81 1009.4
13 17:54 S 13 G 31 10.00 Mostly Cloudy SCT075 SCT090 BKN180 77 60.1 56% 79 29.82 1009.5
13 16:54 S 14 G 25 10.00 Overcast BKN100 BKN120 OVC180 81 57 44% 81 29.81 1009.2
13 15:54 S 18 G 25 10.00 Mostly Cloudy SCT060 SCT095 BKN180 82.9 55.9 40% 82 29.83 1010.0
13 14:54 S 13 G 21 10.00 Mostly Cloudy FEW055 BKN220 81 55 41% 81 29.85 1010.6
13 13:54 S 13 G 25 10.00 Mostly Cloudy FEW060 BKN200 80.1 53.1 81 63 39% 80 29.87 1011.3
13 12:54 S 10 G 24 10.00 Partly Cloudy FEW050 SCT120 SCT200 79 51.1 38% 79 29.89 1012.1
13 11:54 S 10 G 23 10.00 Mostly Cloudy FEW120 SCT170 BKN200 77 50 39% 78 29.91 1012.8
13 10:54 S 12 10.00 Partly Cloudy SCT250 73.9 53.1 48% 29.93 1013.4
13 09:54 S 10 10.00 Partly Cloudy SCT250 70 53.1 55% 29.96 1014.4
13 08:54 S 10 10.00 Partly Cloudy SCT250 66.9 53.1 61% 29.97 1014.9
13 07:54 S 12 10.00 Partly Cloudy FEW200 SCT250 63 52 63 55 68% 29.98 1015.0
13 05:54 Calm 10.00 A Few Clouds FEW040 FEW200 57 52 83% 29.98 1015.2
13 04:54 Calm 10.00 Fair CLR 55.9 52 87% 29.96 1014.5
13 03:54 Calm 8.00 Fair CLR 57 53.1 87% 29.96 1014.4
13 02:54 SE 3 10.00 Fair CLR 57.9 53.1 84% 29.96 1014.6
13 01:54 Calm 10.00 Fair CLR 60.1 53.1 70 59 78% 29.96 1014.5
13 00:55 Calm 10.00 A Few Clouds FEW040 FEW200 57 52 83% 29.98 1015.2
13 00:54 E 3 10.00 Mostly Cloudy FEW002 BKN047 61 54 78% 29.96 1014.6
12 23:54 E 5 10.00 A Few Clouds FEW044 64 54 70% 29.97 1014.7
12 22:54 NE 3 10.00 Mostly Cloudy BKN049 BKN060 66 54 65% 29.98 1015.3
12 21:54 N 3 10.00 Mostly Cloudy FEW040 FEW048 BKN060 66.9 55 66% 29.98 1015.3
12 20:54 N 6 10.00 Mostly Cloudy BKN048 68 54 61% 29.96 1014.6
12 19:54 NW 3 10.00 Mostly Cloudy BKN065 BKN200 69.1 53.1 73.9 69.1 57% 29.96 1014.4
12 18:54 NW 6 10.00 Partly Cloudy SCT070 SCT200 71.1 53.1 53% 29.95 1014.3
12 17:54 N 7 10.00 Partly Cloudy FEW038 FEW065 SCT200 73 54 51% 29.95 1014.3
12 16:54 Vrbl 5 10.00 Partly Cloudy FEW040 FEW065 SCT180 73 53.1 50% 29.97 1014.7
12 15:54 NW 9 10.00 Mostly Cloudy FEW045 SCT070 BKN170 73 53.1 50% 29.98 1015.1
12 14:54 NW 10 10.00 Mostly Cloudy FEW043 SCT070 BKN170 72 53.1 52% 29.99 1015.4
12 13:54 N 5 10.00 Mostly Cloudy SCT038 BKN065 72 53.1 73.9 57.9 52% 30 1015.9
12 12:54 Calm 10.00 Mostly Cloudy BKN043 69.1 52 55% 30.02 1016.6
12 11:54 Calm 10.00 Mostly Cloudy BKN034 70 52 53% 30.03 1017.0
12 09:54 Vrbl 3 10.00 Partly Cloudy FEW020 SCT034 64.9 52 63% 30.05 1017.4
12 08:54 E 3 10.00 Mostly Cloudy FEW010 BKN032 61 53.1 75% 30.05 1017.7
12 07:54 Calm 10.00 Mostly Cloudy BKN032 57.9 53.1 57.9 52 84% 30.05 1017.5
12 06:54 Calm 10.00 Mostly Cloudy BKN033 55 51.1 87% 30.04 1017.4
12 05:54 Calm 10.00 Mostly Cloudy BKN034 53.1 50 89% 30.04 1017.1
12 04:54 Calm 10.00 Overcast OVC033 53.1 50 89% 30.03 1016.8
12 03:54 Calm 10.00 Overcast OVC032 54 51.1 90% 30.03 1016.8
12 02:54 Calm 10.00 Overcast OVC025 55 52 90% 30.03 1017.0
12 01:54 Calm 10.00 Fair CLR 55 52 64 55 90% 30.03 1016.9
12 00:54 Calm 10.00 Fair CLR 55.9 52 87% 30.02 1016.6
11 23:54 E 6 10.00 Partly Cloudy SCT032 57 52 83% 30.02 1016.7
11 22:54 Calm 10.00 Partly Cloudy SCT034 59 52 78% 30.02 1016.5
11 21:54 N 5 10.00 A Few Clouds FEW080 60.1 53.1 78% 30.01 1016.2
11 20:54 N 7 10.00 Partly Cloudy FEW080 SCT250 62.1 53.1 73% 29.99 1015.4
11 19:54 N 7 10.00 Partly Cloudy SCT080 SCT130 64 52 69.1 64 65% 29.97 1014.9
11 18:54 N 8 10.00 Mostly Cloudy BKN075 BKN120 BKN250 66.9 52 59% 29.96 1014.6
11 17:54 N 9 10.00 Mostly Cloudy FEW040 BKN075 68 53.1 59% 29.95 1014.1
11 16:54 NW 12 10.00 Mostly Cloudy FEW036 BKN075 68 53.1 59% 29.95 1014.3
11 15:54 N 6 10.00 Mostly Cloudy BKN039 BKN090 68 52 57% 29.96 1014.6
11 14:54 Vrbl 3 10.00 Mostly Cloudy BKN033 68 51.1 55% 29.96 1014.4
11 13:54 NE 7 10.00 Mostly Cloudy BKN029 BKN035 64.9 50 66 55.9 59% 29.96 1014.4
11 12:54 Vrbl 5 10.00 Mostly Cloudy BKN026 63 50 63% 29.96 1014.6
11 11:54 Vrbl 3 10.00 Mostly Cloudy BKN025 63 48.9 60% 29.96 1014.4
11 10:54 Vrbl 5 10.00 Mostly Cloudy BKN025 BKN090 61 48.9 65% 29.95 1014.2
11 09:54 NE 3 10.00 Overcast SCT016 OVC023 57.9 48.9 72% 29.95 1014.4
11 08:54 Vrbl 7 10.00 Partly Cloudy FEW016 SCT023 SCT031 57 48.9 74% 29.94 1014.1
11 07:54 N 9 10.00 Overcast OVC024 55.9 48 57 55 75% 29.94 1013.8
11 06:54 NE 7 10.00 Mostly Cloudy BKN019 BKN026 55 48 77% 29.92 1013.3
Date Time (edt) Wind (mph) Vis. (mi.) Weather Sky Cond. Air Dwpt Max. Min. Relative Humidity Wind Chill (°F) Heat Index (°F) altimeter (in) sea level (mb) 1 hr 3 hr 6 hr
6 hour
Temperature (ºF) Pressure Precipitation (in)